星链-36081(STARLINK-36081)

导读 | 豆包AI

STARLINK-36081是美国于2026年1月18日发射的Starlink星链卫星,星链是美国太空探索技术公司打造的低轨卫星互联网星座,旨在为全球提供高速低延迟宽带网络服务,该卫星作为星链组网的一员,将助力星座覆盖能力与服务性能提升,推动全球卫星互联网基础设施的完善部署。

基本信息
目录编号:
67498
目录名称:
STARLINK-36081
国际标识:
2026-012F
轨道中心:
EARTH
卫星名称:
星链-36081
卫星全名:
星链-36081(STARLINK-36081)
卫星状态:
在轨 (已飞行76 天)
发射日期:
2026-01-18 UTC
国别 :
美国 (US)
星等 :
--
轨道信息
数据来源 国际轨道数据
星历时间: 2026-04-03T22:58:08+0800
11小时前
查看轨道信息
半长轴: 6861.22km
偏心率: 0.0002497
轨道倾角: 43.006°
近地点辐角 267.182°
升交点赤经 173.729°
平近点角 92.874°
近地点: 481.369km
远地点: 484.797km
周期: 94.267分钟
每日圈数: 15.275689
详细信息
固有亮度:
5
最大亮度:
2.5
卫星平台:
Starlink V1.0
覆盖范围:
全球
运营商:
太空探索技术公司
运营商所在国:
美国
制造商(研发单位):
太空探索技术公司
制造商所在国:
美国
使用方式:
暂无
卫星简介
Starlink 计划是 SpaceX 推出的全球卫星互联网项目,通过发射低轨道卫星,为全球尤其是偏远地区提供高速、低延迟的互联网服务。自 2019 年起,Starlink 已部署数千颗卫星,旨在缩小全球数字鸿沟,推动互联网普及。该项目还为军事、航空等行业提供通信支持,带来广泛经济效益。
2D轨道图
3D轨道图
轨道高度分析图
轨道倾角分析图
轨道综合分析图
查看轨道综合分析图